Regional Weather Roundup
Issued by NWS

Home | Current Version | Previous Version | Graphics & Text | Print | Product List | Glossary On
Versions: 1 2 3 4 5 6 7 8 9 10 11 12 13 14 15 16 17 18 19 20 21 22 23 24 25 26 27 28 29 30 31 32 33 34 35 36 37 38 39 40 41 42 43 44 45 46 47 48 49 50
576
ASUS43 KDMX 091203
RWRIA

WEATHER ROUNDUP FOR IOWA
NATIONAL WEATHER SERVICE DES MOINES IA
600 AM CST TUE FEB 09 2016

NOTE: "FAIR" INDICATES FEW OR NO CLOUDS BELOW 12,000 FEET WITH NO
SIGNIFICANT WEATHER AND/OR OBSTRUCTIONS TO VISIBILITY.

* - THESE STATIONS ARE NOT NWS STATIONS...THUS NOT UNDER NWS
QUALITY CONTROL.  THEY ALSO DO NOT REPORT WEATHER SUCH
AS PRECIPITATION OR FOG.

IAZ001>003-012>014-020>022-031>034-043>046-091300-
   NORTHWEST IOWA

CITY           SKY/WX    TMP DP  RH WIND       PRES   REMARKS
CARROLL *      CLOUDY     7   1  78 N24G33    30.10R WCI -15
CHEROKEE *     MOCLDY     7   3  85 N14       30.15R WCI -10
DENISON *      CLOUDY     9   3  78 N15G21    30.11R WCI  -8
LE MARS *      CLEAR     10   3  72 N14G21    30.20R WCI  -5
ORANGE CITY *  CLEAR      7   1  78 N8G18     30.15R WCI  -6
SHELDON *      CLOUDY     5   0  78 NW18G26   30.13R WCI -15
SIOUX CITY     PTCLDY    13   3  64 NW18G29   30.19R WCI  -4
6HR MIN TEMP:  13; 6HR MAX TEMP:  22;

SPENCER        CLOUDY     5  -1  76 NW22G29   30.12R WCI -16
6HR MIN TEMP:   5; 6HR MAX TEMP:  10; 6HR PCP: TRACE;

STORM LAKE *   CLOUDY     5   1  85 NW22      30.10S WCI -16
$$

IAZ055>058-069>071-079>083-090>094-091300-
   SOUTHWEST IOWA

CITY           SKY/WX    TMP DP  RH WIND       PRES   REMARKS
ATLANTIC *     CLOUDY     9   1  72 N17       30.13R WCI -10
AUDUBON *      CLEAR      7   1  78 NW15      30.11R WCI -11
CLARINDA *     CLOUDY    12   5  73 N16G26    30.16R WCI  -4
COUNCIL BLFS * CLOUDY    12   7  79 N12G20    30.15R WCI  -2
CRESTON *      CLOUDY    10   5  79 NW24G31   30.07R WCI -10
HARLAN  *      MOCLDY     9   3  78 N20G28    30.15S WCI -11
LAMONI         CLOUDY    13   5  70 N16G25    30.05R WCI  -3
6HR MIN TEMP:  13; 6HR MAX TEMP:  18; 6HR PCP: TRACE;

RED OAK *      CLOUDY    12   5  73 N18G28    30.14R WCI  -5
SHENANDOAH *   CLEAR     14   9  79 N15G22    30.16R WCI  -1
$$

IAZ047>049-059>061-072>074-084-091300-
   CENTRAL IOWA

CITY           SKY/WX    TMP DP  RH WIND       PRES   REMARKS
AMES           CLOUDY    10   4  76 N20G28    30.06R WCI  -9
6HR MIN TEMP:  10; 6HR MAX TEMP:  14; 6HR PCP: TRACE;

ANKENY *       CLOUDY    12   3  67 NW23G32   30.06R WCI  -7
BOONE *        CLOUDY     9   3  78 NW28      30.03S WCI -13
CHARITON *     FLURRIES  12   5  73 NW20      30.03R WCI  -6
DES MOINES     FLURRIES  12   3  67 N20G26    30.06R WCI  -6
6HR MIN TEMP:  12; 6HR MAX TEMP:  15; 6HR PCP: TRACE;

GRINNELL*      LGT SNOW  12   9  87 NW21      30.00R WCI  -6
KNOXVILLE *    CLOUDY    12   5  73 NW23G32   30.01R WCI  -7
MARSHALLTOWN   LGT SNOW  11   7  84 NW21      30.01R FOG     WCI  -8
6HR MIN TEMP:  11; 6HR MAX TEMP:  13; 6HR PCP: TRACE;

NEWTON *       FLURRIES  12   7  79 NW23G32   30.01R WCI  -7
PELLA *        MOCLDY    14   7  73 NW18G25   30.03R WCI  -3
$$

IAZ004>006-015-016-023>025-035-036-091300-
   NORTH CENTRAL IOWA

CITY           SKY/WX    TMP DP  RH WIND       PRES   REMARKS
ALGONA *       CLOUDY     7   3  85 N20G28    30.06R WCI -13
CLARION *      CLOUDY     7   1  78 NW22      30.04R WCI -14
ESTHERVILLE    CLOUDY     4   1  88 NW25      30.09R FOG     WCI -19
6HR MIN TEMP:   4; 6HR MAX TEMP:   9; 6HR PCP: TRACE;

FORT DODGE *   CLOUDY     9   0  66 NW16G29   30.08R WCI  -9
MASON CITY     MIX PCPN   7   3  84 NW22      30.02R FOG     WCI -14
6HR MIN TEMP:   7; 6HR MAX TEMP:  11; 6HR PCP: TRACE;

FOREST CITY *  PTCLDY     9   3  78 NW20G26   30.02S FOG     WCI -11
WEBSTER CITY * CLOUDY     9   3  78 NW26G33   30.03S WCI -13
IOWA FALLS *   CLOUDY     9   6  86 NW25      30.02R WCI -12
$$

IAZ007>011-017>019-026>030-037>042-050>054-066-091300-
   NORTHEAST IOWA

CITY           SKY/WX    TMP DP  RH WIND       PRES   REMARKS
CEDAR RAPIDS   LGT SNOW  12   7  80 N20       29.94R WCI  -6
6HR MIN TEMP:  12; 6HR MAX TEMP:  15; 6HR PCP: TRACE;

CHARLES CITY * CLOUDY    10   5  79 NW16G23   29.99R WCI  -7
CLINTON *      FLURRIES  13   7  77 NW13      29.90R WCI  -2
DECORAH *      CLOUDY     7   0  72 N21G26    29.93R WCI -13
DUBUQUE        CLEAR      9   2  73 N21G28    29.87R WCI -11
6HR MIN TEMP:   9; 6HR MAX TEMP:  14; 6HR PCP: TRACE;

MONTICELLO *   MOCLDY    12   3  67 N16G24    29.92R WCI  -4
OELWEIN *      MOCLDY     9   3  78 N23G31    29.95R HAZE    WCI -12
WATERLOO       CLOUDY    11   5  77 NW18      29.98R WCI  -7
6HR MIN TEMP:  11; 6HR MAX TEMP:  13; 6HR PCP: TRACE;

$$

IAZ064-065-067-068-078-091300-
   EAST CENTRAL IOWA

CITY           SKY/WX    TMP DP  RH WIND       PRES   REMARKS
DAVENPORT      CLEAR     12   5  73 NW15      29.91R WCI  -4
6HR MIN TEMP:  12; 6HR MAX TEMP:  16; 6HR PCP: TRACE;

IOWA CITY      FLURRIES  14   7  73 NW16G25   29.97R WCI  -2
6HR MIN TEMP:  14; 6HR MAX TEMP:  17; 6HR PCP: TRACE;

MT. PLEASANT * FLURRIES  18  12  79 NW13G18   29.95R WCI   4
MUSCATINE *    CLOUDY    16   9  73 NW15G24   29.95R WCI   1
QUAD CITIES    MOCLDY    14   5  67 NW14G23   29.91R WCI  -1
6HR MIN TEMP:  14; 6HR MAX TEMP:  17; 6HR PCP:  0.01;

$$

IAZ062-063-075>077-085>089-095>099-091300-
   SOUTHEAST IOWA

CITY           SKY/WX    TMP DP  RH WIND       PRES   REMARKS
BURLINGTON     CLOUDY    15   9  76 NW15G25   29.93R WCI   0
6HR MIN TEMP:  14; 6HR MAX TEMP:  17; 6HR PCP: TRACE;

FAIRFIELD *    CLOUDY    14   7  73 NW17G28   29.97R WCI  -3
FORT MADISON * FLURRIES  14  10  85 NW18G24   29.94R WCI  -3
KEOKUK *       FLURRIES  16   9  73 NW14G23   29.95R WCI   1
OSKALOOSA *    CLOUDY    14   9  79 NW21G26   30.00R WCI  -4
OTTUMWA        CLOUDY    13   7  77 NW23G36   30.00R WCI  -6
6HR MIN TEMP:  13; 6HR MAX TEMP:  16; 6HR PCP: TRACE;

WASHINGTON *   LGT SNOW  14  10  85 NW16G24   29.97R WCI  -2
$$

ABBREVIATIONS USED IN REMARKS
   TC - TEMPERATURES IN CELSIUS
  WCI - WIND CHILL INDEX
   HX - HEAT INDEX
  VSB - VISIBILITY
$$





USA.gov is the U.S. government's official web portal to all federal, state and local government web resources and services.